Location: Sobotiste
(48.7170°N, 17.4000°E)
Time: 19:15:20
(UTC+02:00)

SEEDS - Pass Details

Date: 21 March 2026
Orbit: 471 x 477 km, 97.8° (Epoch: 18 April)

Event Time Altitude Azimuth Distance (km) Brightness Sun altitude
Rises 04:11:34 0° 31° (NNE) 2,546 ? -17.0°
Reaches altitude 10° 04:14:30 10° 58° (ENE) 1,658 ? -16.5°
Maximum altitude 04:16:24 14° 91° (E) 1,429 ? -16.2°
Drops below altitude 10° 04:18:18 10° 123° (ESE) 1,646 ? -15.9°
Sets 04:21:11 0° 150° (SSE) 2,515 ? -15.5°
